New York JFK, NY

11:41 AM EST on December 15, 2017 (GMT -0500)
Kennedy International

Weather History for KJFK - January, 2013

Change the Weather History Date:

Wednesday, January 9, 2013

  Actual Average Record
Temperature  
Mean Temperature 41 °F 33 °F  
Max Temperature 48 °F 39 °F 65 °F (2008)
Min Temperature 33 °F 26 °F 0 °F (1968)
Degree Days  
Heating Degree Days 24 32  
Month to date heating degree days 260 286  
Since 1 July heating degree days 1811 1955  
Cooling Degree Days 0 0  
Month to date cooling degree days 0 0  
Year to date cooling degree days 0 0  
Moisture  
Dew Point 34 °F    
Average Humidity 76    
Maximum Humidity 92    
Minimum Humidity 60    
Precipitation  
Precipitation 0.00 in 0.10 in 1.30 in (1964)
Month to date precipitation T 0.95  
Year to date precipitation T 0.95  
Snow  
Snow 0.00 in 0.20 in 4.40 in (1974)
Month to date snowfall T 1.8  
Since 1 July snowfall 4.7 6.7  
Snow Depth 0.00 in    
Sea Level Pressure  
Sea Level Pressure 30.29 in    
Wind  
Wind Speed 8 mph (SW)    
Max Wind Speed 20 mph    
Max Gust Speed 26 mph    
Visibility 10 miles    
Events      
T = Trace of Precipitation, MM = Missing Value Source: NWS Daily Summary

Daily Weather History Graph

Daily Weather History Graph

Search for Another Location

Airport or City:

Trip Planner

Search our weather history database for the weather conditions in past years. The results will help you decide how hot, cold, wet, or windy it might be!

Date:

Astronomy

Jan. 09, 2013 Rise Set
Actual Time 7:18 AM EST 4:46 PM EST
Civil Twilight 6:48 AM EST 5:16 PM EST
Nautical Twilight 6:14 AM EST 5:50 PM EST
Astronomical Twilight 5:41 AM EST 6:23 PM EST
Moon 4:55 AM EST (1/9) 2:45 PM EST (1/9)
Length of Visible Light 10h 28m
Length of Day
9h 27m
Waning Crescent, 6% of the Moon is Illuminated
Jan 9
Waning Crescent
Jan 11
New
Jan 18
First Quarter
Jan 26
Full
Feb 3
Last Quarter

Hourly Weather History & Observations

Time (EST) Temp. Windchill Dew Point Humidity Pressure Visibility Wind Dir Wind Speed Gust Speed Precip Events Conditions
12:51 AM 35.1 °F 30.1 °F 30.9 °F 85% 30.41 in 10.0 mi WSW 5.8 mph - N/A   Scattered Clouds
1:51 AM 35.1 °F 32.2 °F 30.9 °F 85% 30.39 in 10.0 mi SW 3.5 mph - N/A   Scattered Clouds
2:51 AM 35.1 °F 31.0 °F 32.0 °F 89% 30.39 in 10.0 mi SW 4.6 mph - N/A   Scattered Clouds
3:51 AM 35.1 °F - 32.0 °F 89% 30.38 in 9.0 mi Calm Calm - N/A   Mostly Cloudy
4:51 AM 35.1 °F - 33.1 °F 92% 30.38 in 9.0 mi Calm Calm - N/A   Overcast
5:51 AM 37.0 °F - 32.0 °F 82% 30.37 in 10.0 mi Calm Calm - N/A   Scattered Clouds
6:51 AM 37.9 °F - 32.0 °F 79% 30.38 in 9.0 mi Calm Calm - N/A   Mostly Cloudy
7:51 AM 34.0 °F 31.0 °F 30.9 °F 89% 30.39 in 8.0 mi Variable 3.5 mph - N/A   Mostly Cloudy
8:51 AM 39.9 °F - 37.0 °F 89% 30.40 in 7.0 mi Calm Calm - N/A   Mostly Cloudy
9:51 AM 45.0 °F 42.6 °F 37.0 °F 74% 30.39 in 8.0 mi SSW 4.6 mph - N/A   Mostly Cloudy
10:51 AM 46.9 °F - 35.1 °F 63% 30.34 in 10.0 mi SSE 9.2 mph - N/A   Mostly Cloudy
11:51 AM 46.0 °F 42.5 °F 37.0 °F 71% 30.31 in 10.0 mi SSW 6.9 mph - N/A   Mostly Cloudy
12:51 PM 46.0 °F 41.4 °F 34.0 °F 63% 30.26 in 10.0 mi South 9.2 mph - N/A   Overcast
1:51 PM 46.9 °F - 35.1 °F 63% 30.27 in 10.0 mi SSW 6.9 mph - N/A   Overcast
2:51 PM 46.4 °F 41.9 °F 34.2 °F 62% 30.20 in 10.0 mi South 9.2 mph - N/A   Overcast
3:51 PM 45.3 °F 41.1 °F 36.3 °F 71% 30.17 in 10.0 mi South 8.1 mph - N/A   Overcast
4:51 PM 46.0 °F 42.5 °F 39.0 °F 76% 30.16 in 10.0 mi SSW 6.9 mph - N/A   Mostly Cloudy
5:51 PM 48.0 °F - 39.0 °F 71% 30.19 in 10.0 mi WSW 8.1 mph - N/A   Overcast
6:51 PM 48.0 °F - 37.0 °F 66% 30.19 in 10.0 mi WSW 17.3 mph - N/A   Scattered Clouds
7:51 PM 48.0 °F - 37.0 °F 66% 30.21 in 10.0 mi WSW 16.1 mph - N/A   Partly Cloudy
8:51 PM 46.9 °F - 37.0 °F 68% 30.20 in 10.0 mi WSW 16.1 mph - N/A   Clear
9:51 PM 46.0 °F 39.3 °F 36.0 °F 68% 30.20 in 10.0 mi West 16.1 mph - N/A   Clear
10:51 PM 46.9 °F - 33.1 °F 59% 30.23 in 10.0 mi West 16.1 mph - N/A   Clear
11:51 PM 46.9 °F - 30.9 °F 54% 30.24 in 10.0 mi West 18.4 mph - N/A   Clear